Wahpeton, MN

9:22 PM CST on December 11, 2019 (GMT -0600)
Stern

Weather History for KBWP - October, 2019

Change the Weather History Date:

Saturday, October 12, 2019

  Actual Average (WUND) Record (WUND)
Temperature  
Mean Temperature 34 °F -  
Max Temperature 35 °F - - (-1)
Min Temperature 32 °F - - (-1)
Degree Days  
Heating Degree Days 32    
Moisture  
Dew Point 31 °F    
Average Humidity 93    
Maximum Humidity 100    
Minimum Humidity 81    
Precipitation  
Precipitation 0.01 in - - ()
Sea Level Pressure  
Sea Level Pressure 29.53 in    
Wind  
Wind Speed 22 mph ()    
Max Wind Speed 30 mph    
Max Gust Speed 38 mph    
Visibility 6.6 miles    
Events      
Averages and records for this station are not official NWS values.
T = Trace of Precipitation, MM = Missing Value Source: Averaged Metar Reports

Daily Weather History Graph

Daily Weather History Graph

Search for Another Location

Airport or City:

Astronomy

Oct. 12, 2019 Rise Set
Actual Time 7:39 AM CDT 6:45 PM CDT
Civil Twilight 7:09 AM CDT 7:15 PM CDT
Nautical Twilight 6:34 AM CDT 7:50 PM CDT
Astronomical Twilight 5:59 AM CDT 8:25 PM CDT
Moon 6:48 PM CDT 6:09 AM CDT
Length of Visible Light 12h 06m
Length of Day
11h 06m
Waxing Gibbous, 99% of the Moon is Illuminated
Oct 12
Waxing Gibbous
Oct 13
Full
Oct 21
Last Quarter
Oct 27
New
Nov 4
First Quarter

Hourly Weather History & Observations

Time (CDT) Temp. Windchill Dew Point Humidity Pressure Visibility Wind Dir Wind Speed Gust Speed Precip Events Conditions
12:15 AM 32.0 °F 18.1 °F 28.4 °F 87% 29.54 in 10.0 mi West 27.6 mph 38.0 mph N/A   Unknown
12:35 AM 32.0 °F 18.4 °F 28.4 °F 87% 29.53 in 3.0 mi West 26.5 mph 33.4 mph N/A   Unknown
12:55 AM 32.0 °F 17.6 °F 30.2 °F 93% 29.52 in 2.0 mi West 29.9 mph 34.5 mph N/A   Unknown
1:15 AM 32.0 °F 18.4 °F 30.2 °F 93% 29.52 in 2.5 mi West 26.5 mph 33.4 mph N/A   Unknown
1:35 AM 32.0 °F 18.4 °F 30.2 °F 93% 29.51 in 2.0 mi West 26.5 mph 32.2 mph N/A   Unknown
1:55 AM 32.0 °F 18.4 °F 30.2 °F 93% 29.51 in 1.8 mi West 26.5 mph 34.5 mph N/A   Unknown
2:15 AM 32.0 °F 18.4 °F 30.2 °F 93% 29.50 in 3.0 mi West 26.5 mph 35.7 mph N/A   Unknown
2:35 AM 32.0 °F 18.9 °F 30.2 °F 93% 29.50 in 3.0 mi West 24.2 mph 34.5 mph N/A   Unknown
2:55 AM 32.0 °F 17.9 °F 30.2 °F 93% 29.49 in 4.0 mi West 28.8 mph 33.4 mph N/A   Unknown
3:15 AM 32.0 °F 18.1 °F 30.2 °F 93% 29.49 in 5.0 mi West 27.6 mph 32.2 mph N/A   Unknown
3:35 AM 32.0 °F 18.1 °F 30.2 °F 93% 29.48 in 5.0 mi West 27.6 mph 34.5 mph N/A   Unknown
3:55 AM 32.0 °F 18.6 °F 30.2 °F 93% 29.48 in 4.0 mi West 25.3 mph 31.1 mph N/A   Unknown
4:15 AM 32.0 °F 18.6 °F 30.2 °F 93% 29.48 in 3.0 mi West 25.3 mph 31.1 mph N/A   Unknown
4:35 AM 32.0 °F 18.9 °F 30.2 °F 93% 29.47 in 4.0 mi West 24.2 mph 31.1 mph N/A   Unknown
4:55 AM 32.0 °F 18.6 °F 30.2 °F 93% 29.47 in 7.0 mi West 25.3 mph 31.1 mph N/A   Unknown
5:15 AM 32.0 °F 18.6 °F 30.2 °F 93% 29.47 in 10.0 mi West 25.3 mph 29.9 mph N/A   Unknown
5:35 AM 32.0 °F 19.2 °F 30.2 °F 93% 29.47 in 7.0 mi West 23.0 mph 27.6 mph N/A   Unknown
5:55 AM 32.0 °F 19.2 °F 30.2 °F 93% 29.47 in 7.0 mi West 23.0 mph 26.5 mph N/A   Unknown
6:15 AM 32.0 °F 19.8 °F 30.2 °F 93% 29.47 in 7.0 mi West 20.7 mph - N/A   Unknown
6:35 AM 32.0 °F 19.2 °F 30.2 °F 93% 29.47 in 7.0 mi West 23.0 mph - N/A   Unknown
6:55 AM 32.0 °F 19.2 °F 30.2 °F 93% 29.47 in 10.0 mi West 23.0 mph 27.6 mph N/A   Unknown
7:15 AM 32.0 °F 19.5 °F 30.2 °F 93% 29.47 in 7.0 mi West 21.9 mph - N/A   Unknown
7:35 AM 32.0 °F 19.5 °F 30.2 °F 93% 29.47 in 3.0 mi West 21.9 mph 27.6 mph N/A   Unknown
7:55 AM 32.0 °F 19.8 °F 30.2 °F 93% 29.46 in 1.5 mi West 20.7 mph - N/A   Unknown
8:15 AM 32.0 °F 19.5 °F 30.2 °F 93% 29.46 in 5.0 mi West 21.9 mph - N/A   Unknown
8:35 AM 32.0 °F 19.2 °F 30.2 °F 93% 29.45 in 5.0 mi West 23.0 mph - N/A   Unknown
8:55 AM 32.0 °F 19.5 °F 30.2 °F 93% 29.45 in 4.0 mi West 21.9 mph 27.6 mph N/A   Unknown
9:15 AM 32.0 °F 18.6 °F 30.2 °F 93% 29.45 in 4.0 mi West 25.3 mph 29.9 mph N/A   Unknown
9:35 AM 32.0 °F 19.2 °F 30.2 °F 93% 29.46 in 1.5 mi West 23.0 mph 29.9 mph N/A   Unknown
9:55 AM 32.0 °F 19.5 °F 30.2 °F 93% 29.46 in 0.8 mi West 21.9 mph - N/A   Unknown
10:15 AM 32.0 °F 19.8 °F 30.2 °F 93% 29.47 in 1.5 mi West 20.7 mph 26.5 mph N/A   Unknown
10:35 AM 32.0 °F 19.5 °F 30.2 °F 93% 29.47 in 4.0 mi West 21.9 mph - N/A   Unknown
10:55 AM 32.0 °F 19.5 °F 30.2 °F 93% 29.48 in 5.0 mi West 21.9 mph 27.6 mph N/A   Unknown
11:15 AM 32.0 °F 19.8 °F 30.2 °F 93% 29.49 in 5.0 mi WNW 20.7 mph - N/A   Unknown
11:35 AM 32.0 °F 19.8 °F 30.2 °F 93% 29.49 in 7.0 mi West 20.7 mph 26.5 mph N/A   Unknown
11:55 AM 32.0 °F 19.8 °F 30.2 °F 93% 29.49 in 4.0 mi West 20.7 mph - N/A   Unknown
12:15 PM 32.0 °F 20.5 °F 30.2 °F 93% 29.49 in 4.0 mi West 18.4 mph 24.2 mph N/A   Unknown
12:35 PM 33.8 °F 22.5 °F 30.2 °F 87% 29.50 in 10.0 mi West 19.6 mph 26.5 mph N/A   Unknown
12:55 PM 33.8 °F 21.9 °F 30.2 °F 87% 29.50 in 4.0 mi West 21.9 mph 25.3 mph N/A   Unknown
1:15 PM 33.8 °F 21.6 °F 30.2 °F 87% 29.50 in 10.0 mi West 23.0 mph 27.6 mph N/A   Unknown
1:35 PM 33.8 °F 21.3 °F 30.2 °F 87% 29.51 in 10.0 mi WNW 24.2 mph 28.8 mph N/A   Unknown
1:55 PM 33.8 °F 22.5 °F 30.2 °F 87% 29.52 in 4.0 mi WNW 19.6 mph - N/A   Unknown
2:15 PM 33.8 °F 22.2 °F 30.2 °F 87% 29.52 in 10.0 mi WNW 20.7 mph 27.6 mph N/A   Unknown
2:35 PM 33.8 °F 22.8 °F 30.2 °F 87% 29.52 in 10.0 mi WNW 18.4 mph 27.6 mph N/A   Unknown
2:55 PM 35.6 °F 24.0 °F 32.0 °F 87% 29.52 in 10.0 mi WNW 23.0 mph 27.6 mph 0.01 in   Unknown
3:15 PM 35.6 °F 23.4 °F 30.2 °F 81% 29.53 in 10.0 mi WNW 25.3 mph 31.1 mph N/A   Unknown
3:35 PM 33.8 °F 21.6 °F 32.0 °F 93% 29.54 in 10.0 mi WNW 23.0 mph 27.6 mph N/A   Unknown
3:55 PM 35.6 °F 24.0 °F 32.0 °F 87% 29.55 in 10.0 mi WNW 23.0 mph 28.8 mph N/A   Unknown
4:15 PM 35.6 °F 24.5 °F 32.0 °F 87% 29.56 in 10.0 mi WNW 20.7 mph 31.1 mph N/A   Unknown
4:35 PM 35.6 °F 23.4 °F 32.0 °F 87% 29.56 in 10.0 mi WNW 25.3 mph 29.9 mph N/A   Unknown
4:55 PM 33.8 °F 21.6 °F 32.0 °F 93% 29.57 in 10.0 mi WNW 23.0 mph 33.4 mph N/A   Unknown
5:15 PM 33.8 °F 21.3 °F 30.2 °F 87% 29.57 in 10.0 mi WNW 24.2 mph 29.9 mph N/A   Unknown
5:35 PM 33.8 °F 21.6 °F 30.2 °F 87% 29.58 in 10.0 mi WNW 23.0 mph 31.1 mph N/A   Unknown
5:55 PM 33.8 °F 22.5 °F 30.2 °F 87% 29.59 in 10.0 mi WNW 19.6 mph 27.6 mph N/A   Unknown
6:15 PM 33.8 °F 23.2 °F 30.2 °F 87% 29.61 in 10.0 mi WNW 17.3 mph - N/A   Unknown
6:35 PM 33.8 °F 22.8 °F 30.2 °F 87% 29.61 in 5.0 mi WNW 18.4 mph 25.3 mph N/A   Unknown
6:55 PM 33.8 °F 21.9 °F 30.2 °F 87% 29.62 in 5.0 mi WNW 21.9 mph 28.8 mph N/A   Unknown
7:15 PM 33.8 °F 22.2 °F 30.2 °F 87% 29.63 in 10.0 mi WNW 20.7 mph 26.5 mph N/A   Unknown
7:35 PM 32.0 °F 20.8 °F 32.0 °F 100% 29.64 in 10.0 mi West 17.3 mph 21.9 mph N/A   Unknown
7:55 PM 32.0 °F 20.5 °F 32.0 °F 100% 29.64 in 10.0 mi West 18.4 mph 23.0 mph N/A   Unknown
8:15 PM 32.0 °F 21.2 °F 32.0 °F 100% 29.64 in 10.0 mi West 16.1 mph 23.0 mph N/A   Unknown
8:35 PM 32.0 °F 20.8 °F 32.0 °F 100% 29.64 in 10.0 mi West 17.3 mph 21.9 mph N/A   Unknown
8:55 PM 32.0 °F 20.5 °F 32.0 °F 100% 29.64 in 10.0 mi West 18.4 mph 24.2 mph N/A   Unknown
9:15 PM 32.0 °F 20.8 °F 32.0 °F 100% 29.65 in 7.0 mi West 17.3 mph 24.2 mph N/A   Unknown
9:35 PM 32.0 °F 21.2 °F 32.0 °F 100% 29.65 in 5.0 mi West 16.1 mph 20.7 mph N/A   Unknown
9:55 PM 32.0 °F 21.2 °F 32.0 °F 100% 29.65 in 5.0 mi West 16.1 mph - N/A   Unknown
10:15 PM 32.0 °F 20.8 °F 32.0 °F 100% 29.65 in 10.0 mi WNW 17.3 mph - N/A   Unknown
10:35 PM 32.0 °F 21.2 °F 32.0 °F 100% 29.66 in 7.0 mi West 16.1 mph - N/A   Unknown
10:55 PM 32.0 °F 21.2 °F 32.0 °F 100% 29.65 in 7.0 mi West 16.1 mph 20.7 mph N/A   Unknown
11:15 PM 32.0 °F 20.8 °F 32.0 °F 100% 29.65 in 7.0 mi WNW 17.3 mph 20.7 mph N/A   Unknown
11:35 PM 32.0 °F 20.8 °F 32.0 °F 100% 29.65 in 10.0 mi WNW 17.3 mph - N/A   Unknown
11:55 PM 32.0 °F 21.2 °F 32.0 °F 100% 29.65 in 10.0 mi WNW 16.1 mph 23.0 mph N/A   Unknown